STARLINK-5011, 53925

Orbit data source: Space-Track

STARLINK-5011, 53925 is a payload satellite owned by SpaceX/Seattle (US) in LEO that was launched on Sat, 24 Sep 2022 UTC via an FALCON 9 launch vehicle from the Air Force Eastern Test Range (AFETR). Payload-class satellites include a variety of spacecraft equipped with specific instruments for various scientific and technological missions. These include communications satellites like Starlink; space stations such as the ISS; scientific satellites like the Hubble; Earth observation satellites from companies like Planet Labs, Umbra, and HawkEye 360; GPS; miniature CubeSats for education and research; and military/defense satellites.

Loading next visibility...
Identifier
53925, 2022-119AR
Orbit
LEO
Country
Flag of USUS
Related business
Manufacturer
SpaceX/Seattle
Mission
Operational Commercial Communications
Bus & Motor
STARLINK, Unknown motor
Mass
305 kg wet, ~290 kg dry
Launch date (UTC)
2022-09-24 (4 years ago)
Launch vehicle
FALCON 9
Launch site
Air Force Eastern Test Range (AFETR)
Object type
Payload
Rocket body
Debris
Shape & HBR
Box + 1 Pan, 10.1 m
Radar Cross Section
13.562 m², Large (>1 m²)

Expand to show TLE details & history
Last TLE update: 2 days ago

TLE from 2 days ago
0 STARLINK-5011
1 53925U 22119AR  26171.38168775 -.00000474  00000-0 -11680-4 0  9998
2 53925  53.1606 212.6037 0001008  86.0132 274.0975 15.08842162207333
Epoch: 2026-06-20T09:09Z
TLE epoch observation values (Epoch: 2026-06-20T09:09:37.821Z)
Latitude
Longitude
166.59899°
Altitude
540.578 km
Speed
7.593 km/s
True Right ascension
14h 10m 24s
True Declination
0° 00' 00"
Sunlit
Object was in full shadow at epoch
Visualization orbit readout
Latitude
Unknown
Longitude
Unknown
Altitude
Unknown
Speed
Unknown
Apparent Right ascension
Unknown
Apparent Declination
Unknown
Sunlit
N/A
Visualization observer readout
Local Sidereal Time
21:34:30
Azimuth
Unknown
Elevation
Unknown
Doppler factor
Unknown
Orbital elements
Apogee altitude
540.688 km
Perigee altitude
539.293 km
Semi-major axis
6,918.128 km
Eccentricity
0.0001
Inclination
53.1606°
RAAN
212.6037°
Arg. of periapsis
86.0132°
True anomaly
274.08598°
Mean anomaly
274.0975°
Eccentric anomaly
274.09174°
Mean motion
3.7719 °/min
Orbital period
95.44 mins
BSTAR
-0.00001168
Loading maneuver chart data...
Computing Atmospheric mass density...
Loading historical data...
Loading historical data...
Loading historical data...
Loading historical data...
Loading historical data...
Loading historical data...
Loading historical data...

Documentation

Showing up to 5 results
|